This demonstration page uses our WeatherBlox Daily Observations layout. Learn more.

39.92423, -83.80882

Hourly Observations for December 7, 2019

Temp ( °F °C ) Dew Point ( °F °C ) Humidity (%) Winds ( mph kmh ) Pressure ( in mb ) Visibility ( mi km ) Precip ( " mm )
12:56 am 00:56 Clear 26 -3.3 23 -5 88 88 NNE 8 13 30.36 1028 10 16.0934 0 0
1:56 am 01:56 Clear 24 -4.4 21 -6.1 88 88 NE 7 11 30.36 1028 10 16.0934 0 0
2:56 am 02:56 Clear 25 -3.9 22 -5.6 88 88 NNE 7 11 30.39 1029 10 16.0934 0 0
3:56 am 03:56 Clear 21 -6.1 19 -7.2 92 92 NE 7 11 30.4 1029 10 16.0934 0 0
4:56 am 04:56 Clear 20 -6.7 18 -7.8 92 92 NE 6 9 30.41 1030 10 16.0934 0 0
5:56 am 05:56 Clear 21 -6.1 19 -7.2 92 92 NE 5 7 30.42 1030 10 16.0934 0 0
6:56 am 06:56 Clear 21 -6.1 19 -7.2 92 92 E 3 6 30.42 1030 10 16.0934 0 0
7:56 am 07:56 Sunny 22 -5.6 20 -6.7 92 92 SE 5 7 30.42 1030 10 16.0934 0 0
8:56 am 08:56 Sunny 24 -4.4 21 -6.1 88 88 NE 3 6 30.45 1031 10 16.0934 0 0
9:56 am 09:56 Sunny 30 -1.1 26 -3.3 85 85 E 6 9 30.47 1032 10 16.0934 0 0
10:56 am 10:56 Sunny 34 1.1 28 -2.2 79 79 E 5 7 30.48 1032 10 16.0934 0 0
11:56 am 11:56 Sunny 36 2.2 27 -2.8 70 70 VRB 3 6 30.46 1032 10 16.0934 0 0
12:56 pm 12:56 Sunny 38 3.3 26 -3.3 62 62 ESE 8 13 30.43 1031 10 16.0934 0 0
1:56 pm 13:56 Sunny 39 3.9 25 -3.9 57 57 S 7 11 30.42 1030 10 16.0934 0 0
2:56 pm 14:56 Sunny 40 4.4 25 -3.9 55 55 SSE 7 11 30.41 1030 10 16.0934 0 0
3:56 pm 15:56 Sunny 40 4.4 24 -4.4 53 53 SSE 6 9 30.41 1030 10 16.0934 0 0
4:56 pm 16:56 Sunny 36 2.2 24 -4.4 62 62 SE 5 7 30.41 1030 10 16.0934 0 0
5:56 pm 17:56 Clear 32 0 23 -5 69 69 ESE 6 9 30.4 1030 10 16.0934 0 0
6:56 pm 18:56 Clear 28 -2.2 22 -5.6 78 78 SE 6 9 30.39 1029 10 16.0934 0 0
7:56 pm 19:56 Clear 28 -2.2 22 -5.6 78 78 SE 6 9 30.39 1029 10 16.0934 0 0
8:56 pm 20:56 Clear 27 -2.8 22 -5.6 81 81 ESE 7 11 30.37 1029 10 16.0934 0 0
9:56 pm 21:56 Clear 29 -1.7 24 -4.4 82 82 SE 7 11 30.35 1028 10 16.0934 0 0
10:56 pm 22:56 Clear 29 -1.7 24 -4.4 82 82 SE 7 11 30.34 1027 10 16.0934 0 0
11:56 pm 23:56 Clear 29 -1.7 24 -4.4 82 82 SSE 8 13 30.34 1027 10 16.0934 0 0

Powered by AerisWeather